Location: Famechon
(49.7599°N, 2.0615°E)
Time: 13:01:46
(UTC+00:00)

Cosmos 1544 Rocket - Pass Details

Date: 03 February 2023
Orbit: 604 x 628 km, 82.5° (Epoch: 22 March)

Event Time Altitude Azimuth Distance (km) Brightness Sun altitude
Rises 17:20:24 0° 347° (NNW) 2,873 6.9 -5.4°
Reaches altitude 10° 17:22:38 10° 345° (NNW) 1,964 6.1 -5.8°
Maximum altitude 17:26:57 67° 263° (W) 659 4.0 -6.4°
Drops below altitude 10° 17:31:13 10° 182° (S) 1,952 6.4 -7.1°
Sets 17:33:26 0° 179° (S) 2,853 7.2 -7.4°
